User: anonymous   Login
Location: Unspecified
(0.0000°N, 0.0000°E)
Time: 11:13:23
(UTC+00:00)
Language:

DEIMOS 2 - Orbit

View from above orbital plane
View from above orbital plane
View from above satellite
View from above satellite

Ground track
Ground track

The orbit data is extracted from the following two-line orbital elements,

1 40013U 14033D   18020.03011606 -.00000206  00000-0 -17960-4 0  9994
2 40013  97.8729 286.5666 0001887  45.1022 315.0353 14.84882267194384
Epoch (UTC): 20 January 2018 00:43:22
Eccentricity: 0.0001887
inclination: 97.8729°
perigee height: 612 km
apogee height: 615 km
right ascension of ascending node: 286.5666°
argument of perigee: 45.1022°
revolutions per day: 14.84882267
mean anomaly at epoch: 315.0353°
orbit number at epoch: 19438

The dashed part of the orbit path shows where the satellite is in the earth's shadow,  

DLR